Probability
0 0 0 0 0 0 0 0 0 0 0 0 0 0 0 0 0 0 0 0 0 0 0 0 0 0 0 0 0 0 0 0 0 0 0 0 0 0 0 0 0 0 0 0
0 0 0 0 0 0 0 0 0 0 0 0 0 0 0 0 0 0 0 0 0 0 0 0 0 0 0 0 0 0 0 0 0 0 0 0 0 0 0 0 0 0 0 0
0 0 0 0 0 0 0 0 0 0 0 0 0 0 0 0 0 0 0 0 0 0 0 0 0 0 0 0 0 0 0 0 0 0 0 0 0 0 0 0 0 0 0 0
0 0 0 0 0 0 0 0 0 0 0 0 0 0 0 0 0 0 0 0 0 0 0 0 0 0 0 0 0 0 0 0 0 0 0 0 0 0 0 0 0 0 0 0
0 0 0 0 0 0 0 0 0 0 0 0 0 0 0 0 0 0 0 0 0 0 0 0 0 0 0 0 0 0 0 0 0 0 0 0 0 0 0 0 0 0 0 0
0 0 0 0 0 0 0 0 0 0 0 0 0 0 0 0 0 0 0 0 0 0 0 0 0 0 0 0 0 0 0 0 0 0 0 0 0 0 0 0 0 0 0 0
0 0 0 0 0 0 0 0 0 0 0 0 0 0 0 0 0 0 0 0 0 0 0 0 0 0 0 0 0 0 0 0 0 0 0 0 0 0 0 0 0 0 0 0
0 0 0 0 0 0 0 0 0 0 0 0 0 0 0 0 0 0 0 0 0 0 0 0 0 0 0 0 0 0 0 0 0 0 0 0 0 0 0 0 0 0 0 0
0 0 0 0 0 0 0 0 0 0 0 0 0 0 0 0 0 0 0 0 0 0 0 0 0 0 0 0 0 0 0 0 0 0 0 0 0 0 0 0 0 0 0 0
0 0 0 0 0 0 0 0 0 0 0 0 0 0 0 0 0 0 0 0 0 0 0 0 0 0 0 0 0 0 0 0 0 0 0 0 0 0 0 0 0 0 0 0
0 0 0 0 0 0 0 0 0 0 0 0 0 0 0 0 0 0 0 0 0 0 0 0 0 0 0 0 0 0 0 0 0 0 0 0 0 0 0 0 0 0 0 0
0 0 0 0 0 0 0 0 0 0 0 0 0 0 0 0 0 0 0 0 0 0 0 0 0 0 0 0 0 0 0 0 0 0 0 0 0 0 0 0 0 0 0 0
0 0 0 0 0 0 0 0 0 0 0 0 0 0 0 0 0 0 0 0 0 0 0 0 0 0 0 0 0 0 0 0 0 0 0 0 0 0 0 0 0 0 0 0
0 0 0 0 0 0 0 0 0 0 0 0 0 0 0 0 0 0 0 0 0 0 0 0 0 0 0 0 0 0 0 0 0 0 0 0 0 0 0 0 0 0 0 0
0 0 0 0 0 0 0 0 0 0 0 0 0 0 0 0 0 0 0 0 0 0 0 0 0 0 0 0 0 0 0 0 0 0 0 0 0 0 0 0 0 0 0 0
0 0 0 0 0 0 0 0 0 0 0 0 0 0 0 0 0 0 0 0 0 0 0 0 0 0 0 0 0 0 0 0 0 0 0 0 0 0 0 0 0 0 0 0
0 0 0 0 0 0 0 0 0 0 0 0 0 0 0 0 0 0 0 0 0 0 0 0 0 0 0 0 0 0 0 0 0 0 0 0 0 0 0 0 0 0 0 0
0 0 0 0 0 0 0 0 0 0 0 0 0 0 0 0 0 0 0 0 0 0 0 0 0 0 0 0 0 0 0 0 0 0 0 0 0 0 0 0 0 0 0 0
0 0 0 0 0 0 0 0 0 0 0 0 0 0 0 0 0 0 0 0 0 0 0 0 0 0 0 0 0 0 0 0 0 0 0 0 0 0 0 0 0 0 0 0
0 0 0 0 0 0 0 0 0 0 0 0 0 0 0 0 0 0 0 0 0 0 0 0 0 0 0 0 0 0 0 0 0 0 0 0 0 0 0 0 0 0 0 0
0 0 0 0 0 0 0 0 0 0 0 0 0 0 0 0 0 0 0 0 0 0 0 0 0 0 0 0 0 0 0 0 0 0 0 0 0 0 0 0 0 0 0 0
0 0 0 0 0 0 0 0 0 0 0 0 0 0 0 0 0 0 0 0 0 0 0 0 0 0 0 0 0 0 0 0 0 0 0 0 0 0 0 0 0 0 0 0
0 0 0 0 0 0 0 0 0 0 0 0 0 0 0 0 0 0 0 0 0 0 0 0 0 0 0 0 0 0 0 0 0 0 0 0 0 0 0 0 0 0 0 0
0 0 0 0 0 0 0 0 0 0 0 0 0 0 0 0 0 0 0 0 0 0 0 0 0 0 0 0 0 0 0 0 0 0 0 0 0 0 0 0 0 0 0 0
0 0 0 0 0 0 0 0 0 0 0 0 0 0 0 0 0 0 0 0 0 0 0 0 0 0 0 0 0 0 0 0 0 0 0 0 0 0 0 0 0 0 0 0
0 0 0 0 0 0 0 0 0 0 0 0 0 0 0 0 0 0 0 0 0 0 0 0 0 0 0 0 0 0 0 0 0 0 0 0 0 0 0 0 0 0 0 0
0 0 0 0 0 0 0 0 0 0 0 0 0 0 0 0 0 0 0 0 0 0 0 0 0 0 0 0 0 0 0 0 0 0 0 0 0 0 0 0 0 0 0 0
Wind_Speed
8 6 5 8 9 8 10 10 10 11 11 13 9 8 6 4 3 3 3 3 3 3 2 2 2 2 1 1 1 1 1 1 1 1 1 1 1 1 1 1 2 2 2 2
6 5 6 10 11 12 12 11 12 11 15 11 7 4 4 4 4 5 5 5 4 3 3 2 2 2 1 1 1 1 1 1 1 1 1 1 1 1 1 1 1 1 2 2
5 3 4 10 11 12 9 8 8 12 13 6 4 6 6 6 5 7 7 5 5 4 4 4 3 3 2 2 0 1 1 1 1 1 1 1 1 1 1 1 1 2 2 2
3 1 9 9 3 6 8 8 8 8 7 5 7 6 4 4 6 7 6 5 5 4 4 3 2 2 1 0 1 1 1 1 1 1 1 1 1 1 1 1 2 2 2 3
3 5 10 8 4 4 6 8 7 9 8 6 3 2 4 4 5 6 6 5 4 4 3 2 2 2 2 1 0 0 1 1 1 1 1 1 1 2 2 1 2 2 2 3
4 5 8 6 3 2 2 6 4 5 6 3 2 1 6 4 3 3 3 2 1 1 1 1 1 2 2 1 0 1 2 1 1 1 1 2 2 2 1 2 2 2 2 2
7 8 9 5 2 2 3 7 4 4 4 3 5 6 4 2 2 2 1 1 1 2 2 2 1 2 2 1 2 2 1 0 0 1 1 2 1 1 1 1 1 2 2 3
4 7 10 1 3 5 6 4 3 3 3 4 5 4 3 2 1 0 0 1 2 2 1 1 1 2 1 1 2 1 0 0 1 1 1 1 1 1 1 1 1 2 2 3
8 8 4 3 5 6 4 5 5 4 4 3 4 4 3 2 1 1 1 1 1 2 1 0 1 2 2 2 1 0 1 1 1 1 1 1 1 1 1 1 1 1 2 2
6 8 6 6 6 6 5 6 5 5 4 3 4 3 2 2 1 1 1 1 1 2 1 0 1 1 1 1 0 1 0 1 1 1 1 2 1 1 1 1 2 2 2 3
8 8 7 7 7 6 6 5 4 4 3 3 3 3 2 2 2 1 1 0 1 1 1 1 1 0 0 0 1 1 0 1 1 1 1 1 2 2 2 2 3 3 3 3
9 7 6 9 7 5 5 6 5 4 4 3 3 3 2 2 2 1 1 0 0 0 0 0 0 0 1 0 1 1 0 1 1 1 1 1 1 3 4 4 5 5 5 4
9 8 8 9 7 5 5 6 4 3 4 3 2 2 2 1 1 1 0 1 1 1 0 0 0 1 2 1 0 1 1 1 1 1 1 1 1 1 3 4 4 4 4 5
7 5 7 7 7 5 4 3 1 1 1 1 1 1 1 1 1 1 1 1 1 0 0 0 0 1 2 1 1 1 1 1 1 1 1 1 2 2 2 2 3 3 3 5
7 7 8 6 5 3 1 0 0 1 1 1 0 1 1 1 1 1 1 0 1 1 0 0 1 2 2 1 1 1 1 1 1 1 1 2 2 2 2 2 2 3 3 3
6 4 4 3 4 2 1 1 2 2 1 1 1 0 0 1 0 0 1 0 1 1 1 1 1 2 1 1 1 1 1 2 2 1 1 2 2 2 2 2 2 2 3 3
2 3 3 3 3 3 2 2 2 2 1 1 1 0 1 1 1 1 1 1 1 1 1 1 2 2 1 1 1 1 1 2 3 2 2 2 2 2 2 2 3 3 3 4
3 3 3 3 3 2 2 1 1 1 1 1 0 1 1 1 1 1 1 1 2 2 2 1 2 2 1 1 1 1 1 1 2 2 2 2 3 2 2 3 3 3 3 4
3 3 2 2 1 0 1 0 0 0 1 1 1 1 0 0 0 0 1 1 1 2 2 2 3 2 2 2 2 1 1 2 2 2 2 3 3 2 2 3 3 3 3 3
4 4 4 3 3 2 2 2 2 2 1 1 2 1 1 1 1 1 1 1 1 1 2 2 2 2 2 2 3 1 1 2 2 2 2 2 2 2 2 3 3 3 3 3
4 4 4 4 4 4 3 3 2 2 2 2 2 1 1 1 1 1 1 1 2 2 2 3 2 2 2 3 3 1 1 2 2 2 2 2 2 3 2 2 3 3 2 2
4 4 4 4 4 5 4 3 3 3 3 3 3 2 2 2 2 2 1 1 2 3 3 2 2 3 4 4 2 1 2 2 2 2 2 2 2 2 2 2 2 2 2 2
4 4 4 4 4 3 4 4 4 3 3 3 2 2 2 1 1 1 2 2 2 3 3 2 3 5 6 3 1 1 2 2 2 2 2 3 3 2 2 2 2 2 2 2
4 4 4 4 4 4 5 5 4 3 3 3 3 3 2 2 2 2 2 3 4 5 3 4 6 6 6 2 2 2 2 2 2 2 3 3 2 2 2 2 2 2 2 3
4 4 4 4 5 4 4 4 4 4 4 3 4 4 3 2 2 2 3 3 4 5 3 4 7 7 4 2 2 2 2 2 3 3 2 2 2 2 2 2 2 2 3 3
4 4 4 4 3 3 3 3 3 3 3 3 4 4 3 3 3 3 3 3 4 5 4 3 3 4 3 3 3 3 2 3 3 2 3 3 2 2 2 2 3 3 3 3
4 4 4 4 4 4 4 3 3 3 4 3 3 4 4 4 3 4 4 3 3 3 3 3 3 3 3 3 3 3 3 3 2 2 3 2 2 2 2 3 3 3 3 3
Wind_Direction
256 265 250 249 244 221 219 219 226 246 250 263 264 257 261 259 262 261 258 251 240 242 255 273 293 303 309 290 267 195 174 176 199 206 191 186 184 200 206 193 197 202 210 226
271 260 257 266 251 233 234 235 240 258 266 265 265 252 257 254 244 248 251 248 245 244 244 252 259 270 284 294 278 187 174 189 203 193 199 197 208 208 200 209 208 206 219 224
265 282 301 263 233 218 220 213 205 235 254 274 261 241 234 236 237 241 243 237 232 233 231 234 239 236 239 240 234 173 198 206 202 202 220 238 238 221 225 226 220 231 238 234
250 269 241 245 224 208 221 237 224 241 262 255 246 251 239 230 227 241 238 229 229 229 236 236 226 224 226 196 140 166 226 246 238 216 233 269 254 248 254 246 233 241 247 246
202 237 268 286 261 198 211 254 236 240 262 279 293 330 288 250 230 230 228 224 221 217 222 214 204 187 152 139 124 135 246 262 259 237 231 242 257 262 269 259 259 252 251 248
203 225 244 259 294 265 163 269 273 232 253 272 104 252 271 276 253 248 242 220 207 183 163 177 203 151 139 157 166 242 252 260 272 251 230 240 248 255 262 256 258 265 273 264
223 238 257 270 320 85 180 260 301 243 239 196 196 228 267 288 276 250 233 216 160 152 165 195 175 148 157 184 234 254 263 283 317 282 259 259 256 259 268 273 284 282 286 288
206 230 250 245 119 194 241 290 297 278 251 233 251 279 292 284 275 232 142 137 145 147 179 193 152 149 170 243 269 305 5 4 333 319 306 312 285 295 286 264 285 291 295 297
209 230 263 216 226 251 273 279 277 268 267 257 267 275 274 272 263 248 186 168 150 149 148 206 163 163 194 259 304 47 41 353 334 337 333 324 279 277 288 268 262 286 284 287
256 264 269 265 272 278 273 269 276 270 265 245 253 258 255 246 251 222 178 168 140 131 141 252 282 212 213 241 196 120 118 322 329 333 333 336 314 284 273 277 275 279 280 285
259 275 294 276 259 267 280 285 288 288 271 241 229 241 230 228 226 222 233 240 154 160 186 233 251 281 293 215 126 126 226 287 305 302 298 314 310 293 279 259 250 260 264 268
246 247 248 267 270 266 273 277 273 278 281 262 216 223 218 221 225 210 209 179 120 137 189 259 281 342 340 327 147 164 250 279 279 287 290 289 308 322 314 294 299 295 285 284
251 262 256 267 279 273 262 267 267 255 245 251 237 197 185 200 215 181 188 197 198 205 218 308 353 344 335 325 280 210 243 268 275 272 270 276 283 295 315 330 330 321 317 312
255 261 266 264 270 273 263 265 280 308 306 265 225 147 141 146 149 169 221 243 226 151 142 146 348 324 327 327 321 289 271 273 275 268 269 269 268 274 280 296 315 323 329 326
262 253 253 264 273 281 278 213 111 336 4 356 47 127 148 166 197 246 276 272 98 105 47 6 335 320 332 343 334 306 292 281 278 276 276 275 273 275 276 279 284 300 315 321
283 273 257 252 253 265 252 203 201 241 269 298 313 280 203 172 167 336 338 107 141 236 265 296 311 313 327 338 329 317 301 290 298 287 284 287 281 277 278 276 280 286 293 301
298 288 285 281 263 263 260 251 228 230 246 253 234 147 103 98 81 43 357 347 333 295 290 303 313 324 330 322 309 301 302 298 307 305 288 281 278 276 274 273 277 283 285 288
280 273 268 259 248 257 272 275 242 239 255 259 83 96 110 133 194 278 332 10 17 4 348 339 330 336 338 319 308 296 295 292 290 283 283 282 282 279 279 277 277 282 290 295
337 329 332 341 340 289 274 304 18 69 59 94 102 109 126 234 217 356 28 26 1 327 323 331 333 346 337 315 320 298 285 287 291 285 279 287 296 288 286 282 283 286 291 297
357 8 17 20 25 33 35 36 53 59 56 86 93 75 34 1 27 45 45 353 299 295 311 326 339 342 331 313 321 299 284 285 287 287 289 282 279 283 283 283 287 292 295 296
8 17 22 24 23 27 33 37 50 45 32 51 73 64 21 6 21 37 31 336 333 341 340 344 350 335 322 320 327 318 301 291 288 288 288 286 285 285 286 290 291 290 291 295
13 21 22 25 31 26 22 29 41 44 41 40 40 43 47 33 25 20 360 318 322 339 349 343 333 324 326 333 337 326 313 302 298 299 295 291 290 289 289 290 289 290 292 294
18 22 25 27 31 25 24 30 33 38 37 30 24 25 28 15 359 356 338 340 338 344 346 333 328 334 342 354 349 340 329 318 310 304 298 292 290 290 290 291 292 294 296 296
28 32 32 30 40 44 33 21 22 28 31 27 23 21 21 18 8 2 341 340 351 350 348 342 348 350 358 7 354 339 323 311 302 296 293 292 293 293 290 288 291 296 293 291
33 36 36 36 37 34 28 23 29 31 31 32 27 21 15 10 0 346 348 349 352 356 356 352 353 355 1 347 336 322 309 295 292 294 290 292 291 292 291 290 290 291 291 289
32 30 28 29 28 22 18 21 23 16 17 19 15 11 8 7 6 358 355 355 356 355 354 344 339 345 342 331 323 317 310 307 313 312 300 295 290 289 287 287 286 282 283 283
33 31 27 25 22 19 17 19 18 9 6 6 360 358 0 360 359 358 355 353 351 347 340 336 334 334 328 323 318 315 313 309 303 298 294 291 290 287 285 283 282 283 284 282